TimeEST,TemperatureF,Dew PointF,Humidity,Sea Level PressureIn,VisibilityMPH,Wind Direction,Wind SpeedMPH,Gust SpeedMPH,PrecipitationIn,Events,Conditions,WindDirDegrees,DateUTC
12:56 AM,55.9,55.9,100,30.06,5.0,Calm,Calm,-,N/A,,Overcast,0,2012-12-09 05:56:00
2:56 AM,55.9,55.9,100,30.05,4.0,Calm,Calm,-,0.01,,Overcast,0,2012-12-09 07:56:00
3:04 AM,57.2,55.4,94,30.06,4.0,East,3.5,-,N/A,,Overcast,80,2012-12-09 08:04:00
3:36 AM,57.2,55.4,94,30.06,5.0,Calm,Calm,-,N/A,,Overcast,0,2012-12-09 08:36:00
3:56 AM,57.0,55.9,96,30.05,5.0,Calm,Calm,-,N/A,,Overcast,0,2012-12-09 08:56:00
4:56 AM,57.0,55.9,96,30.05,5.0,Calm,Calm,-,0.00,,Overcast,0,2012-12-09 09:56:00
5:22 AM,55.4,55.4,100,30.06,3.0,ESE,3.5,-,N/A,,Mostly Cloudy,120,2012-12-09 10:22:00
5:56 AM,55.9,55.0,97,30.06,4.0,Calm,Calm,-,N/A,,Overcast,0,2012-12-09 10:56:00
6:22 AM,55.4,55.4,100,30.08,6.0,Calm,Calm,-,N/A,,Overcast,0,2012-12-09 11:22:00
6:56 AM,57.0,55.9,96,30.08,6.0,Calm,Calm,-,N/A,,Overcast,0,2012-12-09 11:56:00
7:22 AM,55.4,55.4,100,30.10,6.0,East,3.5,-,N/A,,Overcast,90,2012-12-09 12:22:00
7:56 AM,57.0,55.9,96,30.09,5.0,Calm,Calm,-,N/A,,Overcast,0,2012-12-09 12:56:00
8:02 AM,57.2,55.4,94,30.10,5.0,Calm,Calm,-,N/A,,Overcast,0,2012-12-09 13:02:00
8:56 AM,57.9,57.0,97,30.10,7.0,SSE,5.8,-,N/A,,Partly Cloudy,150,2012-12-09 13:56:00
9:39 AM,60.8,57.2,88,30.11,9.0,South,5.8,-,N/A,,Overcast,180,2012-12-09 14:39:00
9:56 AM,62.1,57.9,86,30.11,10.0,SSW,5.8,-,N/A,,Overcast,200,2012-12-09 14:56:00
10:12 AM,62.6,57.2,82,30.12,10.0,South,8.1,-,N/A,,Overcast,190,2012-12-09 15:12:00
10:56 AM,63.0,57.9,84,30.10,10.0,SSW,5.8,-,N/A,,Overcast,200,2012-12-09 15:56:00
11:56 AM,64.9,59.0,81,30.07,10.0,West,5.8,-,N/A,,Mostly Cloudy,260,2012-12-09 16:56:00
12:56 PM,66.9,59.0,76,30.05,10.0,SW,9.2,-,N/A,,Overcast,230,2012-12-09 17:56:00
1:56 PM,68.0,59.0,73,30.04,10.0,SW,10.4,-,N/A,,Overcast,220,2012-12-09 18:56:00
2:10 PM,69.8,59.0,68,30.04,10.0,SSW,6.9,-,N/A,,Mostly Cloudy,210,2012-12-09 19:10:00
2:56 PM,68.0,59.0,73,30.03,10.0,SSW,9.2,-,N/A,,Mostly Cloudy,210,2012-12-09 19:56:00
3:56 PM,69.1,57.9,68,30.03,10.0,South,6.9,-,N/A,,Partly Cloudy,180,2012-12-09 20:56:00
4:14 PM,68.0,57.2,68,30.04,10.0,South,5.8,-,N/A,,Mostly Cloudy,180,2012-12-09 21:14:00
4:39 PM,66.2,57.2,73,30.04,10.0,South,4.6,-,N/A,,Scattered Clouds,170,2012-12-09 21:39:00
4:56 PM,64.9,57.9,78,30.03,10.0,South,5.8,-,N/A,,Clear,190,2012-12-09 21:56:00
5:56 PM,62.1,57.0,84,30.03,10.0,SSE,4.6,-,N/A,,Clear,160,2012-12-09 22:56:00
6:56 PM,61.0,57.0,87,30.03,10.0,Calm,Calm,-,N/A,,Partly Cloudy,0,2012-12-09 23:56:00
7:56 PM,57.9,57.0,97,30.02,10.0,SE,4.6,-,N/A,,Clear,140,2012-12-10 00:56:00
9:32 PM,57.2,57.2,100,30.01,5.0,Variable,3.5,-,N/A,,Partly Cloudy,0,2012-12-10 02:32:00
9:47 PM,57.2,57.2,100,30.01,4.0,SSE,3.5,-,N/A,,Mostly Cloudy,160,2012-12-10 02:47:00
9:56 PM,57.9,57.9,100,30.00,3.0,SSE,3.5,-,N/A,,Mostly Cloudy,160,2012-12-10 02:56:00
10:12 PM,57.2,57.2,100,30.01,4.0,South,3.5,-,N/A,,Scattered Clouds,180,2012-12-10 03:12:00
10:28 PM,57.2,57.2,100,30.01,2.5,Calm,Calm,-,N/A,,Clear,0,2012-12-10 03:28:00
10:32 PM,57.2,57.2,100,30.01,1.5,Calm,Calm,-,N/A,,Partly Cloudy,0,2012-12-10 03:32:00
10:34 PM,57.2,57.2,100,30.01,0.8,Calm,Calm,-,N/A,,Mist,0,2012-12-10 03:34:00
10:39 PM,57.2,57.2,100,30.01,0.2,Calm,Calm,-,N/A,Fog,Fog,0,2012-12-10 03:39:00
10:56 PM,57.0,57.0,100,30.00,0.2,Calm,Calm,-,N/A,Fog,Fog,0,2012-12-10 03:56:00
11:11 PM,57.2,57.2,100,30.01,0.5,SW,3.5,-,N/A,Fog,Fog,230,2012-12-10 04:11:00
11:43 PM,57.2,57.2,100,30.00,0.2,Calm,Calm,-,N/A,Fog,Fog,0,2012-12-10 04:43:00
11:56 PM,57.0,57.0,100,29.98,0.2,Calm,Calm,-,N/A,Fog,Fog,0,2012-12-10 04:56:00